RH
7 6 6 6 6 6 7 8 8 8 6 5 4 7 15 20 20 16 18 18 10 9 12 14 13 11 10 7 6 6 5 7 7 9 12 13 10 10 9 10 11 12 14 20 23 26 26
6 7 7 7 7 7 7 8 9 8 6 5 5 8 16 20 19 17 18 18 17 14 9 9 13 13 13 11 10 10 10 9 7 6 7 10 12 10 10 10 12 13 14 16 17 17 17
12 10 9 9 9 10 11 10 7 6 5 5 5 8 16 21 17 16 18 19 18 15 14 12 8 10 12 11 10 11 11 11 12 12 10 6 8 11 11 11 12 12 14 15 14 13 13
9 10 11 11 10 8 7 6 6 6 6 6 6 9 19 20 15 15 18 19 18 15 12 12 11 10 11 11 11 11 11 11 11 12 12 10 8 10 13 13 13 13 14 14 12 12 12
10 9 9 8 8 8 8 8 8 8 8 7 7 10 20 20 15 16 18 19 19 17 15 13 12 12 11 11 12 12 11 11 11 11 10 9 8 10 12 14 14 13 18 12 13 14 16
11 10 10 10 10 10 10 10 10 10 9 8 8 11 20 20 16 16 18 19 20 18 15 14 13 13 13 13 13 12 11 11 12 13 13 13 13 12 13 13 17 18 15 12 14 14 16
13 12 11 11 10 10 10 11 11 10 10 8 8 12 20 22 18 18 20 21 21 18 16 15 15 14 14 13 13 12 12 12 12 13 14 14 15 15 15 14 14 14 14 14 14 18 23
15 14 12 11 11 11 11 11 11 11 10 9 9 12 19 24 23 23 23 23 23 19 15 14 15 14 14 13 13 13 12 11 12 13 13 12 13 13 14 14 15 16 18 21 21 22 25
23 16 14 14 13 12 11 11 11 11 11 11 11 11 13 21 24 23 22 24 24 14 15 15 15 15 14 14 14 13 12 11 11 11 11 11 11 11 12 13 13 14 16 16 16 12 14
53 38 33 27 16 14 13 12 11 11 11 11 12 11 12 13 19 21 22 24 23 13 16 16 19 18 16 14 14 13 12 12 12 12 11 11 11 10 9 9 10 11 11 12 15 19 25
75 72 70 54 34 31 21 14 12 12 11 10 10 10 11 12 13 19 19 23 24 20 49 18 19 17 14 14 13 14 13 13 13 12 14 14 14 13 12 11 12 15 14 15 17 26 38
79 80 76 73 74 55 33 31 25 16 12 11 10 10 10 10 10 12 16 22 23 20 21 16 18 17 19 18 17 17 16 16 15 15 15 14 14 13 13 12 13 15 16 17 22 32 50
89 87 86 81 79 78 75 60 32 29 27 22 16 13 12 11 11 11 15 20 22 20 19 19 19 20 21 20 20 20 18 17 16 16 15 15 15 14 14 16 17 18 22 33 35 54 30
93 90 89 88 84 82 79 78 75 70 48 30 28 27 23 19 15 13 14 18 22 22 20 21 20 20 20 20 20 19 19 19 19 18 18 17 31 18 20 18 20 22 25 28 26 25 21
100 99 98 99 99 93 90 84 81 80 78 74 71 69 53 32 26 23 20 18 20 21 22 22 22 22 21 20 21 20 20 20 20 19 19 18 19 17 17 20 23 32 35 28 34 27 39
100 100 99 98 98 98 97 92 86 85 84 84 77 72 74 73 70 59 41 26 24 22 22 22 22 22 21 21 22 21 21 22 22 20 19 21 24 20 19 20 21 23 26 34 33 54 48
100 100 100 100 100 98 93 93 91 91 89 90 84 79 72 72 74 73 70 70 70 65 46 32 27 23 23 22 22 22 22 23 22 22 21 21 22 23 21 20 20 21 25 31 38 42 47
100 99 100 100 100 100 100 99 92 93 96 93 92 86 76 75 78 80 77 75 74 71 63 42 38 34 26 25 25 25 25 23 23 22 21 20 22 24 20 20 22 24 26 29 37 45 46
98 99 100 99 100 100 100 100 100 100 100 100 96 90 86 90 81 79 87 86 81 74 70 54 36 33 30 26 27 28 27 24 22 22 27 24 29 43 47 51 55 42 37 32 31 34 39
79 95 99 97 99 100 100 99 99 99 99 97 100 96 78 72 78 87 92 92 77 72 62 50 35 30 26 25 25 28 27 23 20 19 16 25 42 49 51 53 54 47 46 42 36 38 31
38 18 93 94 74 100 100 97 99 86 89 88 100 99 90 84 81 87 87 82 88 83 79 79 65 54 42 26 23 22 22 23 26 26 33 51 56 57 58 47 46 48 46 42 36 28 34
14 2 13 3 17 31 93 98 100 100 83 96 100 99 93 99 100 99 98 92 89 92 88 76 56 35 25 23 22 22 21 19 21 35 73 77 58 44 40 35 28 25 17 17 24 32 44
6 7 4 3 2 7 86 93 93 99 98 90 99 99 92 97 98 100 99 100 97 94 79 63 39 28 22 21 20 19 22 65 78 76 67 43 34 33 32 22 23 19 16 19 21 21 31
17 5 4 4 4 2 13 89 100 89 97 99 98 100 99 98 99 100 100 98 99 99 85 66 49 26 32 27 22 26 39 62 63 57 40 31 30 30 40 26 43 26 26 26 27 34 36
9 6 5 4 4 5 2 82 93 99 100 100 100 100 99 90 98 97 94 99 99 98 82 46 48 38 28 24 49 75 60 46 49 36 25 23 31 38 33 56 31 23 32 40 50 46 51
10 8 6 5 4 6 5 10 54 89 99 100 99 98 100 99 96 99 100 100 99 87 73 66 52 58 37 66 92 68 67 61 42 20 16 19 28 40 44 53 33 40 44 46 57 78 57
13 12 10 8 6 6 7 12 96 99 97 91 99 100 100 100 100 100 98 98 97 92 61 52 38 46 72 87 94 83 58 45 32 18 19 30 42 58 73 71 60 53 71 77 75 62 78
11 13 14 11 10 7 10 46 82 84 94 99 100 99 100 99 98 99 94 95 88 86 81 75 59 60 71 73 62 54 33 23 18 19 20 27 27 51 77 93 84 58 62 72 85 90 80
9 12 14 14 12 10 20 100 99 92 89 99 100 100 99 98 97 94 94 80 60 45 46 50 55 74 80 80 42 19 15 16 15 22 21 33 28 41 36 57 53 60 78 84 77 66 62
Wind_Speed
7 7 6 5 5 5 4 3 2 2 3 3 2 2 3 5 6 6 7 8 7 7 7 6 3 3 4 3 4 6 6 7 8 8 7 7 6 5 5 4 6 7 10 12 13 13 13
8 8 6 6 5 5 5 5 4 4 4 4 3 2 3 5 6 6 7 9 9 8 7 8 8 6 6 7 7 8 8 9 9 9 8 8 8 7 6 6 7 8 10 11 12 12 13
7 7 7 7 7 7 7 7 7 6 5 5 4 3 3 6 6 6 7 9 10 9 9 8 9 10 8 8 7 8 9 9 10 10 10 10 9 8 7 7 9 9 10 11 12 13 14
8 8 9 9 9 8 8 8 7 5 5 5 5 4 4 5 5 6 7 9 10 11 10 10 9 10 11 9 7 6 6 7 8 9 9 10 9 9 9 10 8 9 11 11 14 15 16
9 8 9 8 8 8 8 7 7 6 6 5 5 5 5 6 5 6 8 10 11 11 12 11 10 9 9 5 6 9 9 9 8 7 6 7 7 8 9 9 9 12 7 12 12 15 16
9 9 9 9 8 8 7 7 7 7 7 7 6 5 5 6 6 7 8 10 11 13 10 13 7 7 6 10 12 11 11 9 8 7 6 8 7 8 9 9 6 7 12 13 14 15 18
10 9 9 9 8 8 7 7 7 7 7 7 7 6 6 6 7 8 10 11 14 12 13 11 13 12 11 11 10 10 8 5 3 3 5 6 6 7 8 10 12 13 13 14 14 15 16
10 9 9 10 9 9 9 8 7 7 7 7 7 7 7 7 7 9 11 13 15 15 16 14 12 10 9 8 7 5 1 0 1 1 1 2 4 5 6 8 9 9 10 11 12 15 17
10 10 10 9 9 9 9 9 8 8 8 8 7 8 8 8 9 9 11 14 15 16 16 10 6 4 2 1 1 1 1 1 1 0 1 3 5 6 7 8 9 13 14 16 17 19 20
9 9 10 10 9 9 10 10 9 8 8 8 8 8 9 9 9 9 10 12 14 15 8 4 6 3 3 3 2 3 3 2 3 2 4 6 6 7 9 12 13 17 17 16 17 14 9
12 11 11 9 10 11 10 10 10 9 9 8 7 8 8 8 9 10 10 11 12 14 2 4 3 5 4 4 3 3 4 5 6 7 8 9 13 13 15 17 16 16 17 15 16 16 16
16 14 13 12 10 10 11 11 10 10 10 9 8 7 7 8 8 9 9 10 11 5 2 3 3 4 7 8 8 9 10 10 10 12 12 14 15 15 16 16 15 15 14 17 20 17 8
20 18 17 15 13 12 11 10 11 11 10 9 9 8 8 7 8 8 8 8 5 3 3 2 2 10 11 11 12 12 13 13 11 8 9 12 15 17 17 16 15 14 12 6 4 4 5
25 24 21 19 17 15 14 12 11 9 8 9 9 9 9 8 8 8 8 7 5 5 6 12 11 12 14 16 12 7 11 15 15 14 13 8 6 9 11 11 9 8 9 6 7 9 15
26 27 23 21 21 18 16 14 13 12 10 9 10 10 9 9 9 9 10 5 5 6 7 7 15 15 10 5 9 13 12 16 13 6 6 5 6 6 11 10 9 7 10 13 12 18 12
27 24 26 24 25 22 18 18 16 15 13 12 11 12 11 10 9 9 11 10 11 13 15 16 15 9 12 14 11 10 7 10 12 11 12 11 9 11 16 15 16 16 12 7 7 6 8
19 21 20 24 23 25 23 24 21 20 18 14 13 13 12 13 13 12 13 14 16 16 15 13 15 15 19 19 19 17 11 14 18 17 15 15 11 11 12 11 15 15 18 17 16 13 5
32 31 23 22 20 23 23 20 20 18 18 17 15 16 15 15 16 15 16 14 16 19 19 18 20 20 22 21 19 16 16 16 14 16 13 14 10 11 17 18 20 22 22 19 14 11 12
21 21 29 18 20 16 14 12 13 14 14 13 19 16 15 14 19 19 18 18 19 17 17 17 15 17 19 18 12 11 13 15 16 16 9 7 6 8 8 11 11 13 14 20 22 23 21
35 30 24 34 28 22 10 21 15 14 12 11 16 14 14 16 17 16 18 20 16 19 17 17 19 17 17 18 17 13 13 12 14 15 14 15 18 20 25 24 26 21 23 23 23 18 27
33 35 33 26 31 23 28 19 22 19 18 15 21 21 19 14 14 16 15 17 23 21 21 20 22 20 18 18 18 20 22 22 20 19 16 17 24 26 28 28 32 34 32 29 31 33 25
32 30 29 28 28 28 31 19 24 23 23 22 23 23 21 21 20 21 24 24 22 20 21 21 21 18 19 20 20 20 18 16 15 16 24 27 24 24 28 27 31 32 32 30 28 27 27
26 27 26 28 25 26 24 26 19 24 23 24 21 23 20 21 20 20 20 20 20 21 22 20 17 17 17 17 18 20 16 16 22 22 23 23 24 18 14 18 19 23 18 17 20 19 18
28 27 26 26 26 26 28 32 25 34 25 24 23 21 22 24 22 21 22 22 23 25 25 24 22 20 20 19 17 15 21 27 26 26 26 25 22 17 12 15 5 7 6 9 11 11 14
17 19 23 25 25 27 27 30 29 23 28 23 24 25 25 29 25 25 25 23 26 27 23 21 20 19 17 15 17 18 18 19 22 23 22 22 20 10 6 6 16 19 16 16 14 13 17
16 15 17 20 23 27 29 32 34 32 22 29 24 27 27 29 31 26 25 26 25 23 24 22 19 19 15 19 19 9 7 8 7 6 10 13 16 15 9 5 5 4 6 7 13 18 6
14 14 14 16 19 25 29 30 32 28 28 30 23 25 29 29 32 26 28 26 24 20 19 17 15 17 19 18 17 13 12 12 8 7 6 12 14 18 15 9 11 17 15 13 5 10 18
14 13 13 14 15 21 25 29 36 37 30 28 23 28 28 28 31 27 25 21 18 19 17 14 15 19 18 16 13 13 12 12 11 13 9 9 7 9 10 8 9 9 10 12 19 23 26
12 13 12 12 14 18 23 26 33 33 27 18 25 27 28 25 21 20 21 21 19 19 19 17 19 17 10 10 12 9 11 10 12 10 16 12 16 8 12 9 16 19 23 24 24 26 23
Wind_Direction
185 195 200 200 192 202 221 239 269 314 327 324 331 325 5 13 6 10 14 7 1 353 342 335 332 311 311 316 313 302 301 290 289 285 281 274 267 260 243 219 208 197 190 194 207 211 218
208 211 217 226 233 238 244 263 283 294 298 309 309 329 355 1 357 1 2 355 354 342 331 329 327 309 310 305 303 296 298 293 288 287 276 268 261 248 242 227 215 205 205 209 220 228 234
226 235 240 245 252 260 266 277 286 292 302 311 314 324 347 351 352 356 355 349 349 340 327 323 319 323 311 303 295 297 297 290 286 281 275 268 258 246 242 232 224 220 208 214 228 235 240
242 247 253 256 261 268 275 280 284 294 305 308 307 314 333 346 341 343 343 345 348 342 336 325 321 318 312 304 300 302 304 299 292 281 270 262 251 244 235 231 222 216 225 226 235 241 245
231 239 250 258 261 266 273 278 284 291 292 293 300 306 318 330 333 331 332 339 343 343 336 331 322 311 306 299 315 307 298 294 286 276 264 254 245 242 237 230 235 230 231 227 242 241 244
234 233 238 247 251 259 270 279 286 289 292 293 289 290 298 312 320 321 325 330 335 338 339 332 334 321 295 297 302 299 297 290 277 266 261 256 250 249 247 235 248 244 238 242 237 249 245
243 250 251 248 251 257 261 268 276 282 283 282 282 283 288 297 309 316 322 327 330 332 330 324 307 296 292 289 289 292 291 294 280 263 254 253 249 250 249 248 254 260 259 258 255 250 251
235 237 250 263 261 256 255 258 260 265 270 275 280 282 284 291 300 315 323 328 331 325 324 314 306 294 278 278 279 284 275 10 76 83 168 254 256 260 258 256 260 262 264 266 264 256 254
242 246 247 243 256 265 265 265 265 265 268 271 276 280 280 285 294 308 319 326 331 329 323 318 328 324 328 266 228 181 34 16 65 144 270 261 271 265 265 266 270 273 270 271 267 270 263
242 248 253 258 256 258 265 268 268 268 268 275 281 283 286 287 291 303 316 327 335 334 327 4 4 24 37 43 70 29 21 335 285 273 293 289 280 274 270 268 271 275 276 272 269 268 258
248 254 257 259 263 259 257 259 267 269 270 272 277 284 287 289 293 301 314 328 337 335 346 339 13 16 41 24 11 336 315 299 288 288 285 281 277 272 273 275 275 266 274 274 271 270 271
243 247 253 258 259 265 268 262 259 262 267 269 271 275 284 289 292 297 309 322 330 324 256 307 345 55 342 324 313 308 296 291 288 283 278 274 272 271 270 272 268 265 275 283 278 266 255
243 245 252 257 256 258 259 269 270 265 266 269 275 280 284 285 291 296 305 317 320 223 270 222 291 314 312 309 301 295 294 294 284 295 287 285 276 272 270 267 266 265 277 289 234 202 264
245 245 249 250 255 255 258 260 264 271 282 287 285 283 281 286 291 292 294 306 241 223 257 290 300 306 302 303 299 304 304 296 289 277 279 273 279 268 269 250 245 249 228 248 290 293 298
231 242 248 246 253 253 258 259 263 262 264 271 285 298 306 306 301 298 296 282 250 265 269 276 299 300 291 283 295 303 304 292 286 276 256 271 257 253 251 243 249 257 233 258 271 276 281
235 238 238 244 245 254 251 255 260 264 263 269 282 283 291 296 298 299 293 282 277 283 284 286 287 268 275 293 298 301 288 278 280 277 271 271 274 247 252 258 258 247 260 256 261 289 279
222 236 228 235 235 241 248 253 256 260 265 266 277 288 292 293 288 287 288 286 290 289 288 282 281 274 279 283 284 282 261 272 273 273 273 277 257 267 262 254 256 258 256 252 262 245 265
251 229 229 240 234 231 246 254 259 257 256 267 267 278 288 287 282 278 291 293 294 288 283 278 277 277 276 282 283 276 262 264 270 273 270 266 272 261 269 274 265 260 257 254 236 250 246
242 252 234 211 245 220 218 220 233 240 241 251 269 273 275 271 279 280 279 285 288 282 284 280 273 278 284 282 284 263 258 266 267 267 260 248 246 297 275 274 278 260 263 256 254 257 253
270 248 238 267 253 225 217 247 232 241 237 263 262 264 269 285 275 273 272 275 276 289 285 283 279 281 286 282 274 267 267 270 263 261 262 272 272 265 268 284 280 267 264 265 255 251 265
262 260 254 246 274 246 256 262 275 252 247 279 255 263 266 264 270 280 258 263 283 281 279 283 282 285 285 277 279 275 276 277 271 267 264 278 275 274 272 277 274 274 276 273 265 267 256
260 256 255 252 255 263 265 239 263 245 270 257 252 261 270 274 274 270 266 267 274 274 279 281 272 273 270 269 271 271 268 269 276 280 291 290 272 276 276 277 274 273 275 272 264 263 263
254 257 256 254 248 248 240 261 255 263 249 263 250 261 273 274 285 273 269 268 275 283 284 276 269 265 265 269 273 272 262 274 283 289 285 273 271 279 281 283 286 287 277 257 259 262 262
248 254 252 251 246 237 229 226 234 260 255 241 251 266 259 268 274 269 273 281 276 275 271 270 267 266 270 267 267 263 276 288 285 283 272 266 268 266 277 296 252 279 264 262 253 256 269
252 252 251 250 246 237 232 222 236 230 249 242 241 252 252 272 269 268 282 281 271 270 265 262 264 261 260 258 273 284 278 280 274 269 263 259 253 254 260 247 281 285 271 265 266 274 279
247 256 257 253 244 236 229 224 233 233 237 239 247 247 256 254 272 268 270 277 271 263 258 253 253 264 251 272 277 251 241 260 258 263 246 245 237 230 248 260 276 276 269 275 280 294 260
248 255 260 259 251 237 230 225 225 232 243 249 238 246 248 252 260 264 271 270 265 256 247 254 251 247 260 269 260 257 249 239 248 236 239 231 238 231 240 250 268 270 278 287 289 291 299
251 259 269 268 260 243 232 223 231 236 244 238 242 254 256 256 258 263 265 258 246 244 247 254 254 247 251 248 244 243 242 236 245 247 255 240 240 219 215 221 256 257 269 283 292 298 306
263 266 279 283 271 239 221 224 232 235 251 251 243 247 245 251 255 258 252 248 238 237 241 250 245 253 243 249 240 235 242 246 249 259 257 246 230 238 223 234 271 285 293 297 301 304 306